Location: Eastchurch
(51.4000°N, 0.8667°E)
Time: 00:09:37
(UTC+00:00)

ATLAS 3B R/B - Pass Details

Date: 19 January 2026
Orbit: 936 x 1257 km, 63.8° (Epoch: 18 February)

Event Time Altitude Azimuth Distance (km) Brightness Sun altitude
Rises 17:44:45 0° 284° (WNW) 4,174 6.9 -12.3°
Reaches altitude 10° 17:47:53 10° 294° (WNW) 3,229 6.0 -12.7°
Maximum altitude 17:54:53 33° 357° (N) 1,977 4.0 -13.8°
Enters shadow 18:00:16 16° 52° (NE) 2,791 4.3 -14.6°
